Time,TemperatureF,DewpointF,PressureIn,WindDirection,WindDirectionDegrees,WindSpeedMPH,WindSpeedGustMPH,Humidity,HourlyPrecipIn,Conditions,Clouds,dailyrainin,SoftwareType,DateUTC
2013-03-28 11:25:00,60.0,31.2,30.34,NE,52,7.1,7.1,34,0.00,,,0.00,WUHU216PEETBRO,2013-03-28 15:25:00,
2013-03-28 11:31:00,60.5,29.7,30.34,NW,309,6.5,13.9,31,0.00,,,0.00,WUHU216PEETBRO,2013-03-28 15:31:00,
2013-03-28 11:36:00,60.9,30.5,30.34,NNW,344,0.0,13.9,32,0.00,,,0.00,WUHU216PEETBRO,2013-03-28 15:36:00,
2013-03-28 11:40:00,61.1,30.2,30.34,West,268,0.0,9.8,31,0.00,,,0.00,WUHU216PEETBRO,2013-03-28 15:40:00,
2013-03-28 11:45:00,61.3,30.7,30.33,NE,36,0.0,9.8,32,0.00,,,0.00,WUHU216PEETBRO,2013-03-28 15:45:00,
2013-03-28 11:51:00,61.5,30.3,30.34,NNW,328,0.0,8.9,31,0.00,,,0.00,WUHU216PEETBRO,2013-03-28 15:51:00,
2013-03-28 11:55:00,61.8,31.2,30.34,NW,314,4.7,8.9,32,0.00,,,0.00,WUHU216PEETBRO,2013-03-28 15:55:00,
2013-03-28 12:00:00,62.0,31.8,30.33,ENE,73,0.0,9.5,32,0.00,,,0.00,WUHU216PEETBRO,2013-03-28 16:00:00,
2013-03-28 12:06:00,62.3,32.8,30.33,NNW,333,0.0,9.5,33,0.00,,,0.00,WUHU216PEETBRO,2013-03-28 16:06:00,
2013-03-28 12:10:00,62.4,31.0,30.33,North,354,6.7,9.8,31,0.00,,,0.00,WUHU216PEETBRO,2013-03-28 16:10:00,
2013-03-28 12:15:00,62.1,29.8,30.33,West,265,4.8,9.8,30,0.00,,,0.00,WUHU216PEETBRO,2013-03-28 16:15:00,
2013-03-28 12:21:00,62.8,29.9,30.33,North,350,5.5,9.9,29,0.00,,,0.00,WUHU216PEETBRO,2013-03-28 16:21:00,
2013-03-28 12:26:00,63.2,30.5,30.33,West,278,2.6,9.9,29,0.00,,,0.00,WUHU216PEETBRO,2013-03-28 16:26:00,
2013-03-28 12:31:00,63.0,29.9,30.32,WNW,289,0.0,9.7,29,0.00,,,0.00,WUHU216PEETBRO,2013-03-28 16:31:00,
2013-03-28 12:36:00,62.8,29.0,30.32,NW,320,0.0,8.6,28,0.00,,,0.00,WUHU216PEETBRO,2013-03-28 16:36:00,
2013-03-28 12:41:00,62.7,30.3,30.32,NNE,33,4.6,8.6,30,0.00,,,0.00,WUHU216PEETBRO,2013-03-28 16:41:00,
2013-03-28 12:46:00,63.1,31.5,30.32,North,9,0.0,12.4,31,0.00,,,0.00,WUHU216PEETBRO,2013-03-28 16:46:00,
2013-03-28 12:51:00,63.4,30.0,30.32,NNE,25,3.3,12.4,29,0.00,,,0.00,WUHU216PEETBRO,2013-03-28 16:51:00,
2013-03-28 12:56:00,63.9,30.5,30.32,North,359,0.0,8.4,29,0.00,,,0.00,WUHU216PEETBRO,2013-03-28 16:56:00,
2013-03-28 13:01:00,64.1,30.1,30.32,WNW,283,5.5,8.4,28,0.00,,,0.00,WUHU216PEETBRO,2013-03-28 17:01:00,
2013-03-28 13:06:00,64.2,30.2,30.31,West,269,5.7,7.5,28,0.00,,,0.00,WUHU216PEETBRO,2013-03-28 17:06:00,
2013-03-28 13:11:00,64.5,30.1,30.31,North,359,6.2,10.0,28,0.00,,,0.00,WUHU216PEETBRO,2013-03-28 17:11:00,
2013-03-28 13:16:00,64.7,29.0,30.31,NE,52,0.0,10.0,26,0.00,,,0.00,WUHU216PEETBRO,2013-03-28 17:16:00,
2013-03-28 13:21:00,65.0,28.0,30.31,WNW,295,0.0,8.7,25,0.00,,,0.00,WUHU216PEETBRO,2013-03-28 17:21:00,
2013-03-28 13:26:00,65.1,28.7,30.31,NNW,340,0.0,7.4,26,0.00,,,0.00,WUHU216PEETBRO,2013-03-28 17:26:00,
2013-03-28 13:31:00,65.3,29.5,30.31,WSW,242,6.8,8.7,26,0.00,,,0.00,WUHU216PEETBRO,2013-03-28 17:31:00,
2013-03-28 13:36:00,65.7,28.5,30.30,SW,231,0.0,10.5,25,0.00,,,0.00,WUHU216PEETBRO,2013-03-28 17:36:00,
2013-03-28 13:41:00,66.2,30.0,30.30,NNW,328,7.5,10.5,26,0.00,,,0.00,WUHU216PEETBRO,2013-03-28 17:41:00,
2013-03-28 13:46:00,66.6,30.0,30.29,NNW,335,0.0,8.1,26,0.00,,,0.00,WUHU216PEETBRO,2013-03-28 17:46:00,
2013-03-28 13:51:00,66.3,28.7,30.29,NNW,345,5.5,11.2,24,0.00,,,0.00,WUHU216PEETBRO,2013-03-28 17:51:00,
2013-03-28 13:56:00,66.2,29.7,30.29,WNW,302,0.0,12.7,26,0.00,,,0.00,WUHU216PEETBRO,2013-03-28 17:56:00,
2013-03-28 14:02:00,66.1,29.1,30.29,NNW,337,0.0,12.7,25,0.00,,,0.00,WUHU216PEETBRO,2013-03-28 18:02:00,
2013-03-28 14:07:00,66.2,30.0,30.29,East,84,0.0,6.5,26,0.00,,,0.00,WUHU216PEETBRO,2013-03-28 18:07:00,
2013-03-28 14:12:00,67.0,29.1,30.29,NNW,333,7.7,9.5,24,0.00,,,0.00,WUHU216PEETBRO,2013-03-28 18:12:00,
2013-03-28 14:17:00,67.2,29.3,30.29,NW,316,4.2,9.5,24,0.00,,,0.00,WUHU216PEETBRO,2013-03-28 18:17:00,
2013-03-28 14:22:00,67.2,29.0,30.28,North,8,0.0,9.4,24,0.00,,,0.00,WUHU216PEETBRO,2013-03-28 18:22:00,
2013-03-28 14:27:00,67.4,29.0,30.28,NW,310,4.8,9.1,24,0.00,,,0.00,WUHU216PEETBRO,2013-03-28 18:27:00,
2013-03-28 14:32:00,67.4,29.8,30.28,West,278,3.4,9.0,25,0.00,,,0.00,WUHU216PEETBRO,2013-03-28 18:32:00,
2013-03-28 14:37:00,67.8,27.8,30.28,SW,235,0.0,8.3,22,0.00,,,0.00,WUHU216PEETBRO,2013-03-28 18:37:00,
2013-03-28 14:42:00,67.8,29.0,30.27,WNW,300,0.0,9.3,23,0.00,,,0.00,WUHU216PEETBRO,2013-03-28 18:42:00,
2013-03-28 14:47:00,68.4,28.1,30.27,WNW,300,0.0,9.3,22,0.00,,,0.00,WUHU216PEETBRO,2013-03-28 18:47:00,
2013-03-28 14:52:00,68.7,29.2,30.27,WNW,283,4.7,11.9,23,0.00,,,0.00,WUHU216PEETBRO,2013-03-28 18:52:00,
2013-03-28 14:57:00,69.4,27.9,30.27,WNW,296,5.7,11.9,21,0.00,,,0.00,WUHU216PEETBRO,2013-03-28 18:57:00,
2013-03-28 15:02:00,68.4,27.9,30.27,WNW,285,4.6,10.0,22,0.00,,,0.00,WUHU216PEETBRO,2013-03-28 19:02:00,
2013-03-28 15:07:00,68.4,27.0,30.27,North,358,0.0,10.0,21,0.00,,,0.00,WUHU216PEETBRO,2013-03-28 19:07:00,
2013-03-28 15:12:00,68.5,27.4,30.26,NW,321,7.4,13.0,21,0.00,,,0.00,WUHU216PEETBRO,2013-03-28 19:12:00,
2013-03-28 15:17:00,68.4,26.7,30.26,NW,323,5.5,13.0,21,0.00,,,0.00,WUHU216PEETBRO,2013-03-28 19:17:00,
2013-03-28 15:22:00,68.6,25.7,30.26,WNW,297,7.2,12.5,20,0.00,,,0.00,WUHU216PEETBRO,2013-03-28 19:22:00,
2013-03-28 15:27:00,68.8,26.5,30.26,North,355,0.0,12.5,20,0.00,,,0.00,WUHU216PEETBRO,2013-03-28 19:27:00,
2013-03-28 15:32:00,68.9,25.0,30.25,North,352,0.0,10.0,19,0.00,,,0.00,WUHU216PEETBRO,2013-03-28 19:32:00,
2013-03-28 15:37:00,69.2,24.4,30.25,NNE,28,0.0,10.0,18,0.00,,,0.00,WUHU216PEETBRO,2013-03-28 19:37:00,
2013-03-28 15:42:00,69.9,24.5,30.25,West,271,3.3,9.5,18,0.00,,,0.00,WUHU216PEETBRO,2013-03-28 19:42:00,
2013-03-28 15:47:00,70.5,24.5,30.25,WNW,289,0.0,12.1,18,0.00,,,0.00,WUHU216PEETBRO,2013-03-28 19:47:00,
2013-03-28 15:52:00,70.4,24.4,30.24,NW,321,3.5,12.1,18,0.00,,,0.00,WUHU216PEETBRO,2013-03-28 19:52:00,
2013-03-28 15:57:00,70.3,25.5,30.24,NW,307,6.1,15.5,19,0.00,,,0.00,WUHU216PEETBRO,2013-03-28 19:57:00,
2013-03-28 16:02:00,69.8,25.4,30.24,NW,307,4.8,15.5,19,0.00,,,0.00,WUHU216PEETBRO,2013-03-28 20:02:00,
2013-03-28 16:07:00,69.7,25.9,30.24,NNW,331,0.0,8.3,19,0.00,,,0.00,WUHU216PEETBRO,2013-03-28 20:07:00,
2013-03-28 16:12:00,69.5,27.7,30.24,NNW,341,6.1,10.5,21,0.00,,,0.00,WUHU216PEETBRO,2013-03-28 20:12:00,
2013-03-28 16:17:00,69.5,25.4,30.23,NE,36,0.0,11.2,19,0.00,,,0.00,WUHU216PEETBRO,2013-03-28 20:17:00,
2013-03-28 16:22:00,69.7,24.8,30.23,WNW,292,6.4,11.9,18,0.00,,,0.00,WUHU216PEETBRO,2013-03-28 20:22:00,
2013-03-28 16:27:00,69.6,24.6,30.23,NW,307,0.0,11.9,18,0.00,,,0.00,WUHU216PEETBRO,2013-03-28 20:27:00,
2013-03-28 16:32:00,69.5,25.9,30.23,NNW,348,7.5,10.7,19,0.00,,,0.00,WUHU216PEETBRO,2013-03-28 20:32:00,
2013-03-28 16:37:00,69.6,26.4,30.23,North,1,3.5,10.0,20,0.00,,,0.00,WUHU216PEETBRO,2013-03-28 20:37:00,
2013-03-28 16:42:00,69.9,28.0,30.23,NW,320,0.0,10.0,21,0.00,,,0.00,WUHU216PEETBRO,2013-03-28 20:42:00,
2013-03-28 16:47:00,70.1,27.8,30.23,NW,304,3.5,11.1,21,0.00,,,0.00,WUHU216PEETBRO,2013-03-28 20:47:00,
2013-03-28 16:52:00,70.0,27.7,30.23,NW,317,0.0,11.1,21,0.00,,,0.00,WUHU216PEETBRO,2013-03-28 20:52:00,
2013-03-28 16:57:00,69.8,27.3,30.23,NNW,333,0.0,12.4,20,0.00,,,0.00,WUHU216PEETBRO,2013-03-28 20:57:00,
2013-03-28 17:02:00,69.6,27.9,30.23,North,359,0.0,12.4,21,0.00,,,0.00,WUHU216PEETBRO,2013-03-28 21:02:00,
2013-03-28 17:07:00,69.8,27.8,30.23,WNW,285,9.3,12.4,21,0.00,,,0.00,WUHU216PEETBRO,2013-03-28 21:07:00,
2013-03-28 17:12:00,69.7,29.0,30.24,NNW,347,0.0,12.4,22,0.00,,,0.00,WUHU216PEETBRO,2013-03-28 21:12:00,
2013-03-28 17:17:00,69.9,27.6,30.23,NNW,341,5.2,11.2,21,0.00,,,0.00,WUHU216PEETBRO,2013-03-28 21:17:00,
2013-03-28 17:22:00,69.7,36.9,30.24,NE,39,0.0,14.2,30,0.00,,,0.00,WUHU216PEETBRO,2013-03-28 21:22:00,
2013-03-28 17:27:00,69.4,38.3,30.24,NE,56,4.5,14.2,32,0.00,,,0.00,WUHU216PEETBRO,2013-03-28 21:27:00,
2013-03-28 17:32:00,69.3,38.2,30.24,East,88,9.6,9.8,32,0.00,,,0.00,WUHU216PEETBRO,2013-03-28 21:32:00,
2013-03-28 17:37:00,69.2,37.8,30.24,ENE,60,4.5,9.6,32,0.00,,,0.00,WUHU216PEETBRO,2013-03-28 21:37:00,
2013-03-28 17:42:00,69.1,38.2,30.24,NE,50,4.5,9.6,33,0.00,,,0.00,WUHU216PEETBRO,2013-03-28 21:42:00,
2013-03-28 17:47:00,68.9,38.0,30.24,ENE,60,8.5,12.8,33,0.00,,,0.00,WUHU216PEETBRO,2013-03-28 21:47:00,
2013-03-28 17:52:00,68.8,39.5,30.24,ESE,111,6.6,12.8,35,0.00,,,0.00,WUHU216PEETBRO,2013-03-28 21:52:00,
2013-03-28 17:58:00,68.5,39.5,30.24,NNE,33,2.7,10.9,35,0.00,,,0.00,WUHU216PEETBRO,2013-03-28 21:58:00,
2013-03-28 18:03:00,67.8,41.2,30.25,ENE,57,10.9,10.9,38,0.00,,,0.00,WUHU216PEETBRO,2013-03-28 22:03:00,
2013-03-28 18:08:00,67.5,40.4,30.25,ENE,70,6.4,12.4,37,0.00,,,0.00,WUHU216PEETBRO,2013-03-28 22:08:00,
2013-03-28 18:13:00,67.2,41.1,30.25,NE,39,9.6,12.4,39,0.00,,,0.00,WUHU216PEETBRO,2013-03-28 22:13:00,
2013-03-28 18:18:00,66.9,41.1,30.25,ENE,70,5.8,12.1,39,0.00,,,0.00,WUHU216PEETBRO,2013-03-28 22:18:00,
2013-03-28 18:23:00,66.5,41.6,30.25,NE,55,11.1,12.0,40,0.00,,,0.00,WUHU216PEETBRO,2013-03-28 22:23:00,
2013-03-28 18:28:00,66.3,41.4,30.26,East,90,6.5,14.2,40,0.00,,,0.00,WUHU216PEETBRO,2013-03-28 22:28:00,
2013-03-28 18:33:00,65.9,41.3,30.26,NE,55,5.1,14.2,41,0.00,,,0.00,WUHU216PEETBRO,2013-03-28 22:33:00,
2013-03-28 18:38:00,65.6,41.2,30.26,ENE,57,6.2,13.1,41,0.00,,,0.00,WUHU216PEETBRO,2013-03-28 22:38:00,
2013-03-28 18:43:00,65.4,41.7,30.26,ENE,76,4.5,11.6,42,0.00,,,0.00,WUHU216PEETBRO,2013-03-28 22:43:00,
2013-03-28 18:48:00,65.3,41.4,30.26,ENE,64,7.1,11.9,42,0.00,,,0.00,WUHU216PEETBRO,2013-03-28 22:48:00,
2013-03-28 18:53:00,65.0,41.7,30.26,NE,53,8.4,13.5,43,0.00,,,0.00,WUHU216PEETBRO,2013-03-28 22:53:00,
2013-03-28 18:58:00,64.6,41.6,30.27,ENE,66,8.3,13.5,43,0.00,,,0.00,WUHU216PEETBRO,2013-03-28 22:58:00,
2013-03-28 19:03:00,64.4,41.3,30.27,East,88,0.0,9.6,43,0.00,,,0.00,WUHU216PEETBRO,2013-03-28 23:03:00,
2013-03-28 19:08:00,64.0,41.6,30.27,SE,132,4.7,9.6,44,0.00,,,0.00,WUHU216PEETBRO,2013-03-28 23:08:00,
2013-03-28 19:13:00,63.8,41.7,30.27,SSE,163,4.7,9.8,45,0.00,,,0.00,WUHU216PEETBRO,2013-03-28 23:13:00,
2013-03-28 19:18:00,63.6,42.4,30.27,ENE,77,7.9,11.2,46,0.00,,,0.00,WUHU216PEETBRO,2013-03-28 23:18:00,
2013-03-28 19:23:00,63.3,42.4,30.27,East,83,5.0,11.2,47,0.00,,,0.00,WUHU216PEETBRO,2013-03-28 23:23:00,
2013-03-28 19:28:00,63.0,42.8,30.27,East,81,9.8,10.4,48,0.00,,,0.00,WUHU216PEETBRO,2013-03-28 23:28:00,
2013-03-28 19:33:00,62.6,42.7,30.28,NNE,29,6.6,10.8,48,0.00,,,0.00,WUHU216PEETBRO,2013-03-28 23:33:00,
2013-03-28 19:38:00,62.3,42.7,30.28,NE,39,5.9,10.8,49,0.00,,,0.00,WUHU216PEETBRO,2013-03-28 23:38:00,
2013-03-28 19:43:00,61.9,42.6,30.28,NE,42,7.2,10.7,49,0.00,,,0.00,WUHU216PEETBRO,2013-03-28 23:43:00,
2013-03-28 19:48:00,61.7,42.8,30.28,ESE,114,7.6,10.7,50,0.00,,,0.00,WUHU216PEETBRO,2013-03-28 23:48:00,
2013-03-28 19:53:00,61.4,42.7,30.28,ENE,59,5.5,10.4,50,0.00,,,0.00,WUHU216PEETBRO,2013-03-28 23:53:00,
2013-03-28 19:58:00,61.2,43.2,30.28,NE,46,4.6,8.8,51,0.00,,,0.00,WUHU216PEETBRO,2013-03-28 23:58:00,
2013-03-28 20:03:00,60.9,43.1,30.28,ENE,69,5.5,7.0,52,0.00,,,0.00,WUHU216PEETBRO,2013-03-29 00:03:00,
2013-03-28 20:08:00,60.5,42.9,30.29,NE,52,2.9,8.1,52,0.00,,,0.00,WUHU216PEETBRO,2013-03-29 00:08:00,
2013-03-28 20:13:00,60.5,43.1,30.29,ENE,60,0.0,8.1,53,0.00,,,0.00,WUHU216PEETBRO,2013-03-29 00:13:00,
2013-03-28 20:18:00,60.3,43.2,30.29,ENE,67,5.0,6.8,53,0.00,,,0.00,WUHU216PEETBRO,2013-03-29 00:18:00,
2013-03-28 20:23:00,59.9,43.4,30.29,NE,53,6.9,7.7,54,0.00,,,0.00,WUHU216PEETBRO,2013-03-29 00:23:00,
2013-03-28 20:28:00,59.7,43.6,30.29,ENE,63,6.5,7.7,55,0.00,,,0.00,WUHU216PEETBRO,2013-03-29 00:28:00,
2013-03-28 20:33:00,59.5,43.5,30.29,NNE,15,0.0,7.5,55,0.00,,,0.00,WUHU216PEETBRO,2013-03-29 00:33:00,
2013-03-28 20:38:00,59.4,43.7,30.29,NE,49,6.1,7.3,56,0.00,,,0.00,WUHU216PEETBRO,2013-03-29 00:38:00,
2013-03-28 20:43:00,59.3,43.8,30.30,NE,39,0.0,6.2,56,0.00,,,0.00,WUHU216PEETBRO,2013-03-29 00:43:00,
2013-03-28 20:48:00,59.3,44.0,30.30,NE,40,0.0,7.0,57,0.00,,,0.00,WUHU216PEETBRO,2013-03-29 00:48:00,
2013-03-28 20:53:00,59.1,43.8,30.30,SE,132,0.0,7.0,57,0.00,,,0.00,WUHU216PEETBRO,2013-03-29 00:53:00,
2013-03-28 20:58:00,58.9,43.9,30.30,SE,132,0.0,3.2,57,0.00,,,0.00,WUHU216PEETBRO,2013-03-29 00:58:00,
2013-03-28 21:03:00,58.8,44.1,30.30,ENE,57,4.7,6.7,58,0.00,,,0.00,WUHU216PEETBRO,2013-03-29 01:03:00,
2013-03-28 21:08:00,58.6,44.3,30.30,NE,42,0.0,6.7,59,0.00,,,0.00,WUHU216PEETBRO,2013-03-29 01:08:00,
2013-03-28 21:13:00,58.3,44.1,30.30,NE,42,0.0,6.0,59,0.00,,,0.00,WUHU216PEETBRO,2013-03-29 01:13:00,
2013-03-28 21:18:00,58.2,44.3,30.31,NE,42,0.0,0.0,60,0.00,,,0.00,WUHU216PEETBRO,2013-03-29 01:18:00,
2013-03-28 21:23:00,58.1,44.4,30.31,NE,42,0.0,0.0,60,0.00,,,0.00,WUHU216PEETBRO,2013-03-29 01:23:00,
2013-03-28 21:29:00,58.1,44.4,30.31,NE,42,0.0,0.0,60,0.00,,,0.00,WUHU216PEETBRO,2013-03-29 01:29:00,
2013-03-28 21:34:00,57.9,44.4,30.31,NE,49,0.0,4.2,61,0.00,,,0.00,WUHU216PEETBRO,2013-03-29 01:34:00,
2013-03-28 21:39:00,57.8,44.6,30.31,ENE,73,3.4,5.8,61,0.00,,,0.00,WUHU216PEETBRO,2013-03-29 01:39:00,
2013-03-28 21:44:00,57.7,44.9,30.31,ENE,69,0.0,5.8,62,0.00,,,0.00,WUHU216PEETBRO,2013-03-29 01:44:00,
2013-03-28 21:49:00,57.7,44.9,30.31,ENE,60,0.0,6.4,62,0.00,,,0.00,WUHU216PEETBRO,2013-03-29 01:49:00,
2013-03-28 21:54:00,57.7,44.6,30.31,ENE,60,0.0,6.4,61,0.00,,,0.00,WUHU216PEETBRO,2013-03-29 01:54:00,
2013-03-28 21:59:00,57.5,44.7,30.32,ENE,60,0.0,0.0,62,0.00,,,0.00,WUHU216PEETBRO,2013-03-29 01:59:00,
2013-03-28 22:04:00,57.4,44.7,30.32,ENE,60,0.0,0.0,62,0.00,,,0.00,WUHU216PEETBRO,2013-03-29 02:04:00,
2013-03-28 22:09:00,57.3,44.7,30.32,ENE,60,0.0,0.0,62,0.00,,,0.00,WUHU216PEETBRO,2013-03-29 02:09:00,
2013-03-28 22:14:00,57.1,44.8,30.32,ENE,60,0.0,0.0,63,0.00,,,0.00,WUHU216PEETBRO,2013-03-29 02:14:00,
2013-03-28 22:19:00,56.9,44.8,30.32,ENE,60,0.0,0.0,64,0.00,,,0.00,WUHU216PEETBRO,2013-03-29 02:19:00,
2013-03-28 22:24:00,56.8,45.0,30.32,ENE,64,0.0,0.0,64,0.00,,,0.00,WUHU216PEETBRO,2013-03-29 02:24:00,
2013-03-28 22:29:00,56.5,45.2,30.32,ENE,57,0.0,4.7,65,0.00,,,0.00,WUHU216PEETBRO,2013-03-29 02:29:00,
2013-03-28 22:34:00,56.3,45.3,30.32,NE,56,0.0,4.7,66,0.00,,,0.00,WUHU216PEETBRO,2013-03-29 02:34:00,
2013-03-28 22:39:00,56.2,45.4,30.32,NE,56,0.0,3.4,67,0.00,,,0.00,WUHU216PEETBRO,2013-03-29 02:39:00,
2013-03-28 22:44:00,55.9,45.1,30.32,NE,56,0.0,0.0,67,0.00,,,0.00,WUHU216PEETBRO,2013-03-29 02:44:00,
2013-03-28 22:49:00,55.8,45.0,30.32,NE,56,0.0,0.0,67,0.00,,,0.00,WUHU216PEETBRO,2013-03-29 02:49:00,
2013-03-28 22:54:00,55.7,45.0,30.32,NE,56,0.0,0.0,67,0.00,,,0.00,WUHU216PEETBRO,2013-03-29 02:54:00,
2013-03-28 22:59:00,55.6,44.9,30.32,NE,56,0.0,0.0,67,0.00,,,0.00,WUHU216PEETBRO,2013-03-29 02:59:00,
2013-03-28 23:04:00,55.6,45.1,30.33,NE,56,0.0,0.0,68,0.00,,,0.00,WUHU216PEETBRO,2013-03-29 03:04:00,
2013-03-28 23:09:00,55.6,45.3,30.33,NE,56,0.0,0.0,68,0.00,,,0.00,WUHU216PEETBRO,2013-03-29 03:09:00,
2013-03-28 23:14:00,55.7,46.1,30.33,NE,56,0.0,0.0,70,0.00,,,0.00,WUHU216PEETBRO,2013-03-29 03:14:00,
2013-03-28 23:19:00,55.6,46.8,30.33,NE,56,0.0,0.0,72,0.00,,,0.00,WUHU216PEETBRO,2013-03-29 03:19:00,
2013-03-28 23:24:00,55.3,47.0,30.33,NE,56,0.0,0.0,73,0.00,,,0.00,WUHU216PEETBRO,2013-03-29 03:24:00,
2013-03-28 23:29:00,55.1,47.0,30.33,NE,56,0.0,0.0,74,0.00,,,0.00,WUHU216PEETBRO,2013-03-29 03:29:00,
2013-03-28 23:34:00,54.8,46.7,30.33,NE,56,0.0,0.0,74,0.00,,,0.00,WUHU216PEETBRO,2013-03-29 03:34:00,
2013-03-28 23:39:00,54.7,46.7,30.33,NE,56,0.0,0.0,74,0.00,,,0.00,WUHU216PEETBRO,2013-03-29 03:39:00,
2013-03-28 23:44:00,54.6,46.6,30.33,NE,56,0.0,0.0,74,0.00,,,0.00,WUHU216PEETBRO,2013-03-29 03:44:00,
2013-03-28 23:49:00,54.6,46.9,30.33,NE,56,0.0,0.0,75,0.00,,,0.00,WUHU216PEETBRO,2013-03-29 03:49:00,
2013-03-28 23:54:00,54.7,47.4,30.33,NE,56,0.0,0.0,76,0.00,,,0.00,WUHU216PEETBRO,2013-03-29 03:54:00,
2013-03-28 23:59:00,54.7,47.8,30.33,NE,56,0.0,0.0,77,0.00,,,0.00,WUHU216PEETBRO,2013-03-29 03:59:00,